Home > Weather > Akron > Past weeks

Flag for USA Past Weather in Akron, Ohio, USA — Yesterday and Last 2 Weeks

Now
71 °F

Low clouds.


Feels Like: 68 °F
Forecast: 67 / 85 °F
Wind: No wind

Location: Akron Fulton International Airport

Current Time: Jul 29, 2016 at 2:10:29 AM

Latest Report: Jul 29, 2016 at 1:54 AM


Visibility: 9 mi

Pressure: 29.88 "Hg

Humidity: 90%

Dew Point: 68 °F

Location of AkronLocation

Past Weather in Akron — Graph

°F

Akron Temperature Yesterday

Maximum temperature yesterday: 82 °F (at 12:54 PM)
Minimum temperature yesterday: 68 °F (at 5:54 AM)
Average temperature yesterday: 76 °F

High & Low Weather Summary for the Past Weeks

 TemperatureHumidityPressure
High94 °F (Jul 23, 3:54 PM)91% (Jul 23, 3:54 AM)30.27 "Hg (Jul 23, 3:54 AM)
Low58 °F (Jul 20, 6:54 AM)26% (Jul 20, 1:54 PM)29.84 "Hg (Jul 14, 3:54 AM)
Average78 °F64%30.02 "Hg
* Reported Jul 14 12:54 AM — Jul 29 12:54 AM, Akron, Weather by CustomWeather, © 2016

Note: Actual official high and low records may vary slightly from our data, if they occured in-between our weather recording intervals... More about our weather records

Advertising

Akron Weather History for the Previous 24 Hours

Scroll right to see more
 ConditionsComfort  
Time TempWeatherWind HumidityBarometerVisibility
12:54 AM
Fri, Jul 29
71 °FPassing clouds.No wind87%29.89 "Hg10 mi
11:54 PM
Thu, Jul 28
71 °FClear.5 mph87%29.89 "Hg10 mi
10:54 PM74 °FClear.3 mph82%29.88 "Hg10 mi
9:54 PM74 °FPassing clouds.3 mph82%29.88 "Hg10 mi
8:54 PM77 °FPassing clouds.5 mph77%29.88 "Hg10 mi
7:54 PM79 °FPartly sunny.3 mph72%29.87 "Hg5 mi
6:54 PM79 °FPassing clouds.5 mph74%29.86 "Hg10 mi
5:54 PM80 °FPartly sunny.5 mph69%29.85 "Hg10 mi
4:54 PM80 °FSunny.6 mph67%29.85 "Hg10 mi
3:54 PM80 °FPassing clouds.10 mph64%29.86 "Hg10 mi
2:54 PM81 °FPassing clouds.12 mph65%29.87 "Hg10 mi
1:54 PM82 °FPartly sunny.9 mph65%29.88 "Hg10 mi
12:54 PM82 °FSunny.7 mph63%29.88 "Hg10 mi
11:54 AM81 °FSunny.6 mph65%29.88 "Hg10 mi
10:54 AM81 °FPassing clouds.No wind62%29.88 "Hg10 mi
9:54 AM79 °FSunny.No wind65%29.89 "Hg10 mi
8:54 AM75 °FPassing clouds.No wind71%29.90 "Hg10 mi
7:54 AM74 °FScattered clouds.No wind71%29.91 "Hg10 mi
6:54 AM70 °FPassing clouds.No wind79%29.89 "Hg10 mi
5:54 AM68 °FClear.No wind82%29.89 "Hg10 mi
4:54 AM70 °FClear.No wind73%29.89 "Hg10 mi
3:54 AM71 °FClear.No wind71%29.90 "Hg10 mi
2:54 AM75 °FClear.3 mph64%29.91 "Hg10 mi
Weather by CustomWeather, © 2016

See weather overviewHow to use our weather pages